Погода в Севастополе

Казахстан     53°08′09″N   65°47′35″E
темп.,
°C
ветер,
м/с
пор.,
м/с
влажн.,
%
обл.,
%
осадки,
мм/ч
давл.,
гПа
погр.,
м
19 сентября, вс
вс1900:00+6зсз5108759 2.1 1009777
03:00+3з5109437 0.0 1010386
06:00+2з59958 0.0 1011301
09:00+2з6108596 0.0 1012574
12:00+5зсз71069100 0.1 10121224
15:00+7зсз9125799 0.3 10131621
18:00+6зсз81256100 0.4 10151725
21:00+5зсз6126276 0.0 1016642
20 сентября, пн
пн2000:00+4з6116578 0.0 1017754
03:00+2зсз6126967 0.0 1018495
06:00+2з6107195 0.0 1019606
09:00+2зсз6116925 0.0 1020606
12:00+6сз784685 0.0 10211499
15:00+8сз7847100 0.0 10211634
18:00+6ссз6752100 0.0 10231488
21:00+5ссз4654100 0.0 10241023
21 сентября, вт
вт2100:00+5ссз4757100 0.0 1025671
03:00+3ссз367091 0.0 1026195
06:00+2ссз36825 0.0 1027156
09:00+2ссз36825 0.0 1028318
12:00+6ссз456190 0.0 10281144
15:00+7ссз4452100 0.0 10271345
18:00+8ссз344759 0.0 10261407
21:00+4с22635 0.0 102711
22 сентября, ср
ср2200:00+3вюв00695 0.0 102710
03:00+2юз227152 0.0 102614
06:00+2зюз22745 0.0 102621
09:00+4з24650 0.0 1026122
12:00+10зсз34415 0.0 1026928
15:00+12зсз45335 0.0 10241564
18:00+12сз4634100 0.0 10241657
21:00+8с3345100 0.0 102540
23 сентября, чт
чт2300:00+7ссв3556100 0.0 102597
03:00+5св34695 0.0 102654
06:00+3ссв338116 0.0 102848
09:00+5с35775 0.0 1029184
12:00+9ссв455299 0.0 10301380
15:00+11ссв344682 0.0 10301538
18:00+10св4451100 0.0 10301010
21:00+7св34665 0.0 1031118